SCP
-0 0 0 -0 -1 -0 -0 0 0 0 0 0 0 0 0 0 -0 -0 -0 -0 0 0 0 0 0 -0 -0 -0 0 0 0 0 0 0 0 0 0 0 0 0 0 0 0
0 0 0 -0 -1 -1 -0 -0 0 -0 0 0 0 0 0 0 0 -0 -0 0 0 0 0 0 0 0 -0 -0 -0 -0 -0 -0 0 0 0 0 0 0 0 0 0 0 0
-0 0 0 -0 -1 -1 -0 -0 -0 -0 0 0 0 -0 0 0 0 0 0 0 0 0 0 0 0 0 0 0 -0 -0 -0 -0 -0 0 0 0 0 0 0 0 0 0 0
-0 -0 -0 -0 -1 -1 -1 -0 -0 -0 -0 -0 -0 -0 -0 -0 0 0 0 0 0 0 0 0 0 0 0 0 0 0 -0 -0 -0 -0 0 0 -0 0 0 0 0 0 0
-0 -0 -0 0 -1 -1 -0 -0 -0 -0 -0 -0 -0 -0 0 0 0 0 0 0 0 0 0 0 0 0 0 0 0 0 0 0 0 0 0 0 0 0 0 0 0 0 0
-0 -0 -0 0 -0 -1 -1 -1 -1 -1 -0 -0 -0 0 0 0 0 0 0 0 0 0 0 0 0 0 0 0 0 0 0 0 0 0 0 -0 0 0 0 0 0 0 0
0 0 0 0 -0 -0 -1 -1 -1 -1 -0 -0 -0 0 0 0 0 0 0 0 0 0 0 0 0 0 0 0 0 0 0 0 0 0 0 -0 0 0 0 0 0 0 0
0 0 0 -0 0 0 -0 -0 -1 -0 -0 -0 0 0 0 0 0 0 0 0 0 0 0 0 0 0 0 0 0 0 0 0 0 0 0 0 0 0 0 0 0 0 0
0 0 0 -0 0 0 0 -0 -0 -0 -0 -0 0 0 0 0 0 0 0 0 0 0 0 0 0 0 0 0 0 0 0 0 0 0 0 0 0 0 0 0 0 0 0
1 0 0 0 0 0 0 0 0 -0 -0 -0 0 0 0 0 0 0 0 0 0 0 0 0 0 0 0 0 0 0 0 0 0 0 0 0 0 0 0 0 0 0 0
0 0 0 0 0 0 0 0 0 0 0 0 0 0 0 0 0 0 0 0 0 0 0 0 0 0 0 0 0 0 0 0 0 0 0 0 1 0 0 0 0 0 1
0 0 0 0 0 0 0 0 0 0 0 0 0 0 0 0 0 0 0 0 0 0 0 0 0 0 0 0 0 0 0 0 0 0 0 0 0 0 0 0 0 0 1
1 2 0 0 0 0 0 0 0 0 0 0 0 0 0 0 0 0 0 0 0 0 0 0 1 1 0 0 0 0 0 0 0 0 0 0 0 0 0 0 0 1 0
1 1 1 1 0 0 0 0 0 0 0 0 0 0 0 0 0 0 0 0 0 0 0 0 0 1 0 0 0 0 0 0 0 0 0 0 0 0 0 0 0 0 0
3 3 1 1 0 0 -0 0 0 0 0 0 0 0 0 0 0 0 0 0 0 0 0 0 0 0 0 0 0 0 0 0 0 0 0 1 0 0 0 0 0 0 0
0 1 1 1 0 0 -0 -0 0 0 0 0 0 0 0 0 0 0 0 0 0 0 0 0 0 0 0 0 0 0 0 0 0 0 0 1 0 0 0 0 0 0 0
0 0 0 0 0 0 -0 0 0 0 0 0 0 0 0 0 0 0 0 0 0 0 0 0 0 0 0 0 0 0 0 -0 0 0 0 0 1 1 1 1 1 0 0
0 0 0 0 0 0 0 0 1 1 0 0 0 0 0 0 0 0 0 0 0 0 0 0 0 0 0 0 0 0 0 0 0 0 0 0 0 1 1 1 1 0 0
0 0 0 0 0 0 1 2 2 2 1 1 1 0 0 0 0 0 0 0 0 0 0 0 0 0 0 0 0 0 0 0 0 0 0 0 0 0 0 0 0 0 0
0 0 0 1 2 2 5 5 4 3 2 2 1 1 1 0 0 0 0 0 0 0 0 0 0 0 0 0 0 0 0 0 0 0 0 0 0 0 0 0 0 0 0
0 0 0 0 4 7 7 6 5 3 3 2 1 1 2 2 1 0 0 0 0 0 0 0 0 0 0 0 0 0 0 0 0 0 0 0 0 0 0 0 0 0 0
0 0 0 0 0 6 7 7 8 6 2 3 2 1 1 2 3 2 0 0 0 0 0 0 0 0 0 0 0 0 0 0 0 0 0 0 0 0 0 0 0 0 0
0 0 0 0 0 4 5 1 0 0 0 0 0 0 0 1 3 2 1 0 1 1 0 0 0 0 0 0 0 0 0 0 0 0 0 0 0 0 0 0 0 0 0
0 0 0 0 0 0 0 0 1 0 0 0 0 0 0 0 2 1 1 1 1 1 0 0 0 0 0 0 0 0 0 0 0 0 0 0 0 0 0 0 0 0 0
0 0 0 0 0 0 0 0 0 0 0 0 0 0 0 1 1 1 1 1 1 1 1 0 0 0 0 0 0 0 0 0 0 0 0 0 0 0 0 0 0 0 0
0 0 0 0 0 0 0 0 0 0 0 0 0 0 0 1 1 2 1 1 1 1 1 1 0 0 0 0 0 0 0 0 0 0 0 0 0 0 0 0 0 0 0
Wind_Speed_500mb
73 64 62 58 55 53 53 53 54 56 53 48 47 44 41 37 34 31 28 24 21 18 15 13 11 9 7 5 3 3 4 4 4 5 6 8 5 5 5 3 1 3 6
76 67 64 62 58 56 55 55 54 53 52 49 48 45 42 38 36 32 30 27 24 22 19 18 16 14 14 11 9 6 5 5 5 5 7 12 12 9 5 3 6 3 3
75 69 67 63 60 58 56 55 55 54 52 48 47 46 43 38 34 31 28 25 23 21 19 18 17 18 19 17 16 14 12 11 12 13 14 17 12 11 8 3 8 5 7
75 72 69 65 60 58 56 54 52 52 52 49 45 43 40 36 32 28 25 23 19 19 17 15 15 16 17 18 17 16 15 18 21 17 13 9 9 5 2 6 7 5 6
76 76 72 69 62 59 55 52 50 49 48 46 42 39 36 33 30 26 23 19 18 14 14 13 13 13 14 14 14 14 14 20 17 13 9 6 4 8 9 10 11 10 7
79 79 77 72 65 60 57 52 49 46 44 41 39 36 33 31 28 25 22 19 15 13 11 8 6 7 8 9 10 11 13 17 17 14 9 7 4 11 11 11 12 15 15
79 81 78 73 66 59 56 52 49 46 43 39 37 35 33 31 30 27 25 22 20 17 15 12 10 7 6 5 6 6 7 12 15 15 11 6 7 8 10 14 17 14 19
81 82 78 73 64 57 54 50 47 46 44 42 40 37 35 34 32 31 29 27 26 24 21 19 17 14 10 7 5 4 5 9 15 18 18 9 7 11 15 14 16 20 16
81 81 79 73 63 55 51 48 46 44 44 44 42 40 39 38 37 36 35 33 32 29 28 25 23 21 17 14 13 7 8 6 7 17 22 20 8 14 21 17 16 20 21
80 81 80 75 67 61 55 49 46 45 45 44 44 43 43 43 42 42 41 40 38 36 34 32 31 29 25 23 20 14 12 8 9 15 23 26 16 10 11 16 20 24 22
76 76 76 73 69 64 57 52 49 47 47 46 46 47 49 49 49 49 48 46 43 42 41 38 37 35 32 31 29 21 15 10 14 18 11 18 17 15 16 17 20 25 22
72 71 69 69 67 63 61 56 53 52 50 50 49 52 55 54 53 54 52 51 49 49 48 45 44 42 40 38 35 29 22 16 13 16 15 15 17 21 21 17 21 26 21
71 70 68 68 64 61 59 55 54 54 51 51 51 54 57 58 59 61 59 57 57 56 58 55 52 53 48 45 40 37 30 26 19 17 14 15 18 20 24 19 22 26 20
66 64 67 66 63 59 53 51 50 53 52 54 55 58 61 62 64 65 63 61 60 62 65 62 59 59 54 51 46 45 39 36 29 26 21 21 23 25 24 21 25 23 22
67 63 65 57 49 47 54 49 47 52 53 51 52 55 59 59 63 64 64 62 65 64 67 66 64 64 61 56 53 54 48 42 33 28 30 28 27 26 26 25 24 22 21
44 59 69 69 42 37 65 61 47 49 49 45 46 50 53 51 52 55 56 56 59 61 64 64 63 62 59 57 58 60 53 48 38 30 31 32 30 35 34 31 26 22 23
36 46 71 75 64 85 84 71 49 44 40 44 47 50 53 53 51 50 50 49 49 48 53 56 56 54 53 50 55 57 60 47 41 35 42 43 42 43 42 38 36 32 28
60 63 63 59 72 69 66 59 53 51 49 49 47 51 56 55 53 55 56 55 49 46 46 52 51 50 49 44 49 54 50 41 42 36 44 50 48 45 42 41 39 33 29
65 68 76 74 68 68 66 66 65 59 53 50 53 54 60 60 59 62 63 58 58 53 53 53 52 52 50 44 42 45 37 42 38 38 46 53 49 51 43 40 39 38 30
40 72 79 79 81 78 76 65 67 64 57 56 59 58 58 59 61 65 67 65 63 63 61 59 55 53 57 42 41 44 42 39 40 47 47 49 42 46 36 34 34 38 36
84 66 56 79 88 83 76 66 69 71 72 70 70 60 57 61 64 66 68 70 71 74 70 61 57 55 59 45 47 51 45 44 46 50 43 45 43 41 37 37 37 39 39
75 88 77 69 82 82 78 74 84 77 77 65 60 54 54 62 62 63 71 77 78 73 71 65 59 62 57 52 52 50 42 47 52 54 50 56 52 42 43 36 39 38 39
83 74 85 78 70 90 86 82 81 71 66 56 55 60 61 68 65 68 61 65 72 70 69 65 57 59 63 53 56 50 20 26 37 40 45 34 36 42 42 37 37 39 42
89 85 74 53 74 78 81 80 72 66 65 60 61 60 61 62 63 53 62 64 62 61 61 59 55 59 55 57 55 58 53 38 16 7 13 29 30 31 30 35 40 41 41
68 87 73 65 68 79 78 70 68 67 60 60 61 58 50 57 67 58 61 64 58 52 51 53 56 54 53 53 54 51 51 52 46 47 49 31 27 28 33 37 40 39 34
57 58 71 63 69 75 78 75 66 67 63 60 57 56 51 53 53 56 56 57 48 46 48 47 46 44 46 48 52 51 49 44 41 37 34 35 30 31 32 31 30 32 29
Wind_Direction_500mb
166 164 157 154 151 142 136 134 134 133 134 137 137 138 140 140 137 134 128 125 122 116 115 114 122 128 132 144 173 232 248 242 245 238 199 180 149 93 10 360 170 100 101
162 166 161 157 156 150 144 140 139 139 138 138 137 137 136 135 132 129 126 123 118 113 108 104 103 103 101 103 108 119 127 141 170 165 150 142 136 98 82 321 273 249 150
165 166 165 161 161 156 152 149 147 147 145 145 143 142 139 139 137 135 132 129 126 121 118 114 109 104 100 98 100 105 109 118 129 126 119 140 131 112 78 305 293 264 227
167 169 168 164 164 162 159 157 155 156 153 154 153 151 148 149 147 145 144 142 140 136 132 126 120 110 107 104 101 102 107 124 131 129 129 126 158 146 21 328 293 277 228
170 171 172 167 167 167 165 166 164 164 163 163 163 164 162 161 159 159 157 158 153 154 148 143 139 126 111 108 115 111 118 137 143 135 140 105 19 348 300 314 291 261 255
173 174 175 170 172 169 169 171 176 174 175 175 175 178 177 178 179 178 175 176 176 177 173 168 156 135 117 119 117 123 134 148 159 159 180 123 95 359 2 345 309 266 246
175 179 176 173 175 173 173 173 181 185 188 189 191 192 192 196 195 197 197 197 201 205 204 201 209 204 188 147 149 146 155 174 184 193 205 246 201 238 337 345 352 311 252
178 180 179 175 178 178 178 178 183 189 195 200 203 205 207 211 210 213 214 213 215 216 220 223 228 228 224 224 230 212 213 200 210 214 222 257 236 232 292 307 339 337 283
181 181 182 178 178 183 184 186 190 194 201 206 210 215 218 221 221 224 226 226 227 227 229 232 236 240 240 241 246 247 249 236 221 216 231 254 297 245 258 280 312 330 310
183 186 185 182 182 187 188 191 197 202 208 213 217 223 226 229 231 232 234 234 234 235 235 237 238 241 241 247 250 248 250 258 242 231 236 238 258 276 259 274 311 318 305
187 191 190 188 188 192 193 196 202 209 214 220 224 229 232 233 236 237 238 240 241 242 242 242 243 243 243 246 251 250 246 240 265 224 229 230 254 272 264 280 315 323 301
191 194 198 197 197 196 199 201 207 213 218 225 229 233 237 239 240 243 244 244 245 247 246 245 245 246 245 246 249 253 249 237 233 213 239 249 253 261 259 284 306 322 304
193 194 199 203 206 208 206 207 213 219 223 229 234 238 242 244 244 246 245 245 246 247 249 247 246 248 247 248 251 252 252 239 221 218 256 262 264 258 258 282 307 322 304
203 200 209 205 206 213 216 218 221 228 230 234 237 241 245 249 251 251 252 252 252 251 254 254 252 254 252 251 252 252 254 246 236 231 248 257 263 256 257 278 294 302 305
211 209 209 208 206 219 225 227 227 231 235 238 242 246 249 251 257 258 260 259 259 256 256 257 255 256 255 254 252 254 255 253 243 243 251 259 267 262 261 280 296 305 302
210 222 212 205 197 200 225 235 239 240 234 235 242 248 249 253 258 259 259 261 262 262 261 260 258 259 259 258 256 254 255 254 244 254 256 261 267 272 271 277 280 282 290
204 196 216 220 239 220 229 233 240 247 248 253 253 258 253 252 258 264 265 262 263 266 262 261 257 254 255 255 258 255 253 259 246 264 261 263 265 267 269 273 275 279 283
195 196 200 202 213 221 217 227 238 247 254 258 258 261 256 256 262 269 272 274 272 268 266 258 258 253 253 254 259 258 253 254 240 251 254 254 260 266 269 277 274 265 277
216 206 200 199 203 209 224 235 241 246 248 258 260 260 258 259 264 269 272 277 277 270 266 263 258 254 254 251 261 267 252 258 252 266 257 257 262 268 276 272 266 263 274
230 223 211 211 219 228 229 233 233 231 234 243 251 255 260 261 262 264 267 272 275 267 262 256 256 255 252 254 254 262 259 253 265 255 264 268 269 279 265 260 259 261 266
263 266 265 246 238 227 222 227 226 226 229 232 238 245 254 255 258 257 263 267 269 265 262 259 257 253 249 247 247 255 252 256 260 268 270 272 278 269 262 262 269 256 256
261 259 257 268 245 231 225 232 230 232 231 241 250 252 258 260 258 261 260 267 265 263 255 252 251 250 249 245 239 241 244 255 258 266 268 273 274 259 261 258 271 259 258
261 261 258 267 254 240 239 236 226 230 235 245 253 262 273 267 266 263 261 260 263 262 254 251 247 244 242 243 240 233 233 243 262 266 271 267 266 257 251 264 270 269 258
256 257 254 267 246 239 234 229 229 241 249 260 272 275 273 261 254 260 257 258 261 259 252 248 247 243 241 242 236 238 240 249 246 285 273 292 275 256 263 261 268 267 256
264 257 256 251 243 234 230 235 244 249 259 270 263 261 264 254 254 256 255 251 254 250 247 241 244 245 243 241 240 237 241 242 251 263 277 274 262 259 258 267 267 261 252
265 259 253 246 234 231 231 237 243 256 262 263 262 263 269 258 255 247 249 245 246 243 237 242 240 239 243 244 245 244 242 241 252 238 248 261 263 265 269 274 262 253 240
Wind_Speed_850mb
73 64 62 58 55 53 53 53 54 56 53 48 47 44 41 37 34 31 28 24 21 18 15 13 11 9 7 5 3 3 4 4 4 5 6 8 5 5 5 3 1 3 6
76 67 64 62 58 56 55 55 54 53 52 49 48 45 42 38 36 32 30 27 24 22 19 18 16 14 14 11 9 6 5 5 5 5 7 12 12 9 5 3 6 3 3
75 69 67 63 60 58 56 55 55 54 52 48 47 46 43 38 34 31 28 25 23 21 19 18 17 18 19 17 16 14 12 11 12 13 14 17 12 11 8 3 8 5 7
75 72 69 65 60 58 56 54 52 52 52 49 45 43 40 36 32 28 25 23 19 19 17 15 15 16 17 18 17 16 15 18 21 17 13 9 9 5 2 6 7 5 6
76 76 72 69 62 59 55 52 50 49 48 46 42 39 36 33 30 26 23 19 18 14 14 13 13 13 14 14 14 14 14 20 17 13 9 6 4 8 9 10 11 10 7
79 79 77 72 65 60 57 52 49 46 44 41 39 36 33 31 28 25 22 19 15 13 11 8 6 7 8 9 10 11 13 17 17 14 9 7 4 11 11 11 12 15 15
79 81 78 73 66 59 56 52 49 46 43 39 37 35 33 31 30 27 25 22 20 17 15 12 10 7 6 5 6 6 7 12 15 15 11 6 7 8 10 14 17 14 19
81 82 78 73 64 57 54 50 47 46 44 42 40 37 35 34 32 31 29 27 26 24 21 19 17 14 10 7 5 4 5 9 15 18 18 9 7 11 15 14 16 20 16
81 81 79 73 63 55 51 48 46 44 44 44 42 40 39 38 37 36 35 33 32 29 28 25 23 21 17 14 13 7 8 6 7 17 22 20 8 14 21 17 16 20 21
80 81 80 75 67 61 55 49 46 45 45 44 44 43 43 43 42 42 41 40 38 36 34 32 31 29 25 23 20 14 12 8 9 15 23 26 16 10 11 16 20 24 22
76 76 76 73 69 64 57 52 49 47 47 46 46 47 49 49 49 49 48 46 43 42 41 38 37 35 32 31 29 21 15 10 14 18 11 18 17 15 16 17 20 25 22
72 71 69 69 67 63 61 56 53 52 50 50 49 52 55 54 53 54 52 51 49 49 48 45 44 42 40 38 35 29 22 16 13 16 15 15 17 21 21 17 21 26 21
71 70 68 68 64 61 59 55 54 54 51 51 51 54 57 58 59 61 59 57 57 56 58 55 52 53 48 45 40 37 30 26 19 17 14 15 18 20 24 19 22 26 20
66 64 67 66 63 59 53 51 50 53 52 54 55 58 61 62 64 65 63 61 60 62 65 62 59 59 54 51 46 45 39 36 29 26 21 21 23 25 24 21 25 23 22
67 63 65 57 49 47 54 49 47 52 53 51 52 55 59 59 63 64 64 62 65 64 67 66 64 64 61 56 53 54 48 42 33 28 30 28 27 26 26 25 24 22 21
44 59 69 69 42 37 65 61 47 49 49 45 46 50 53 51 52 55 56 56 59 61 64 64 63 62 59 57 58 60 53 48 38 30 31 32 30 35 34 31 26 22 23
36 46 71 75 64 85 84 71 49 44 40 44 47 50 53 53 51 50 50 49 49 48 53 56 56 54 53 50 55 57 60 47 41 35 42 43 42 43 42 38 36 32 28
60 63 63 59 72 69 66 59 53 51 49 49 47 51 56 55 53 55 56 55 49 46 46 52 51 50 49 44 49 54 50 41 42 36 44 50 48 45 42 41 39 33 29
65 68 76 74 68 68 66 66 65 59 53 50 53 54 60 60 59 62 63 58 58 53 53 53 52 52 50 44 42 45 37 42 38 38 46 53 49 51 43 40 39 38 30
40 72 79 79 81 78 76 65 67 64 57 56 59 58 58 59 61 65 67 65 63 63 61 59 55 53 57 42 41 44 42 39 40 47 47 49 42 46 36 34 34 38 36
84 66 56 79 88 83 76 66 69 71 72 70 70 60 57 61 64 66 68 70 71 74 70 61 57 55 59 45 47 51 45 44 46 50 43 45 43 41 37 37 37 39 39
75 88 77 69 82 82 78 74 84 77 77 65 60 54 54 62 62 63 71 77 78 73 71 65 59 62 57 52 52 50 42 47 52 54 50 56 52 42 43 36 39 38 39
83 74 85 78 70 90 86 82 81 71 66 56 55 60 61 68 65 68 61 65 72 70 69 65 57 59 63 53 56 50 20 26 37 40 45 34 36 42 42 37 37 39 42
89 85 74 53 74 78 81 80 72 66 65 60 61 60 61 62 63 53 62 64 62 61 61 59 55 59 55 57 55 58 53 38 16 7 13 29 30 31 30 35 40 41 41
68 87 73 65 68 79 78 70 68 67 60 60 61 58 50 57 67 58 61 64 58 52 51 53 56 54 53 53 54 51 51 52 46 47 49 31 27 28 33 37 40 39 34
57 58 71 63 69 75 78 75 66 67 63 60 57 56 51 53 53 56 56 57 48 46 48 47 46 44 46 48 52 51 49 44 41 37 34 35 30 31 32 31 30 32 29
Wind_Direction_850mb
166 164 157 154 151 142 136 134 134 133 134 137 137 138 140 140 137 134 128 125 122 116 115 114 122 128 132 144 173 232 248 242 245 238 199 180 149 93 10 360 170 100 101
162 166 161 157 156 150 144 140 139 139 138 138 137 137 136 135 132 129 126 123 118 113 108 104 103 103 101 103 108 119 127 141 170 165 150 142 136 98 82 321 273 249 150
165 166 165 161 161 156 152 149 147 147 145 145 143 142 139 139 137 135 132 129 126 121 118 114 109 104 100 98 100 105 109 118 129 126 119 140 131 112 78 305 293 264 227
167 169 168 164 164 162 159 157 155 156 153 154 153 151 148 149 147 145 144 142 140 136 132 126 120 110 107 104 101 102 107 124 131 129 129 126 158 146 21 328 293 277 228
170 171 172 167 167 167 165 166 164 164 163 163 163 164 162 161 159 159 157 158 153 154 148 143 139 126 111 108 115 111 118 137 143 135 140 105 19 348 300 314 291 261 255
173 174 175 170 172 169 169 171 176 174 175 175 175 178 177 178 179 178 175 176 176 177 173 168 156 135 117 119 117 123 134 148 159 159 180 123 95 359 2 345 309 266 246
175 179 176 173 175 173 173 173 181 185 188 189 191 192 192 196 195 197 197 197 201 205 204 201 209 204 188 147 149 146 155 174 184 193 205 246 201 238 337 345 352 311 252
178 180 179 175 178 178 178 178 183 189 195 200 203 205 207 211 210 213 214 213 215 216 220 223 228 228 224 224 230 212 213 200 210 214 222 257 236 232 292 307 339 337 283
181 181 182 178 178 183 184 186 190 194 201 206 210 215 218 221 221 224 226 226 227 227 229 232 236 240 240 241 246 247 249 236 221 216 231 254 297 245 258 280 312 330 310
183 186 185 182 182 187 188 191 197 202 208 213 217 223 226 229 231 232 234 234 234 235 235 237 238 241 241 247 250 248 250 258 242 231 236 238 258 276 259 274 311 318 305
187 191 190 188 188 192 193 196 202 209 214 220 224 229 232 233 236 237 238 240 241 242 242 242 243 243 243 246 251 250 246 240 265 224 229 230 254 272 264 280 315 323 301
191 194 198 197 197 196 199 201 207 213 218 225 229 233 237 239 240 243 244 244 245 247 246 245 245 246 245 246 249 253 249 237 233 213 239 249 253 261 259 284 306 322 304
193 194 199 203 206 208 206 207 213 219 223 229 234 238 242 244 244 246 245 245 246 247 249 247 246 248 247 248 251 252 252 239 221 218 256 262 264 258 258 282 307 322 304
203 200 209 205 206 213 216 218 221 228 230 234 237 241 245 249 251 251 252 252 252 251 254 254 252 254 252 251 252 252 254 246 236 231 248 257 263 256 257 278 294 302 305
211 209 209 208 206 219 225 227 227 231 235 238 242 246 249 251 257 258 260 259 259 256 256 257 255 256 255 254 252 254 255 253 243 243 251 259 267 262 261 280 296 305 302
210 222 212 205 197 200 225 235 239 240 234 235 242 248 249 253 258 259 259 261 262 262 261 260 258 259 259 258 256 254 255 254 244 254 256 261 267 272 271 277 280 282 290
204 196 216 220 239 220 229 233 240 247 248 253 253 258 253 252 258 264 265 262 263 266 262 261 257 254 255 255 258 255 253 259 246 264 261 263 265 267 269 273 275 279 283
195 196 200 202 213 221 217 227 238 247 254 258 258 261 256 256 262 269 272 274 272 268 266 258 258 253 253 254 259 258 253 254 240 251 254 254 260 266 269 277 274 265 277
216 206 200 199 203 209 224 235 241 246 248 258 260 260 258 259 264 269 272 277 277 270 266 263 258 254 254 251 261 267 252 258 252 266 257 257 262 268 276 272 266 263 274
230 223 211 211 219 228 229 233 233 231 234 243 251 255 260 261 262 264 267 272 275 267 262 256 256 255 252 254 254 262 259 253 265 255 264 268 269 279 265 260 259 261 266
263 266 265 246 238 227 222 227 226 226 229 232 238 245 254 255 258 257 263 267 269 265 262 259 257 253 249 247 247 255 252 256 260 268 270 272 278 269 262 262 269 256 256
261 259 257 268 245 231 225 232 230 232 231 241 250 252 258 260 258 261 260 267 265 263 255 252 251 250 249 245 239 241 244 255 258 266 268 273 274 259 261 258 271 259 258
261 261 258 267 254 240 239 236 226 230 235 245 253 262 273 267 266 263 261 260 263 262 254 251 247 244 242 243 240 233 233 243 262 266 271 267 266 257 251 264 270 269 258
256 257 254 267 246 239 234 229 229 241 249 260 272 275 273 261 254 260 257 258 261 259 252 248 247 243 241 242 236 238 240 249 246 285 273 292 275 256 263 261 268 267 256
264 257 256 251 243 234 230 235 244 249 259 270 263 261 264 254 254 256 255 251 254 250 247 241 244 245 243 241 240 237 241 242 251 263 277 274 262 259 258 267 267 261 252
265 259 253 246 234 231 231 237 243 256 262 263 262 263 269 258 255 247 249 245 246 243 237 242 240 239 243 244 245 244 242 241 252 238 248 261 263 265 269 274 262 253 240